When you browse on this site, cookies collect data to enhance your experience and personalize the content and advertising you see.
Visit our Privacy Policy to learn more. By continuing to use the site, you agree to this use of cookies and data.
  • En España
  • Lista de países
  • Para 7 días
  • Temperatura del agua
  • El tiempo en el mapa
  • Informadores
  • user-avatar
    Iniciar sesión

    Tiempo cada hora Gdansk

    Hoy, 6 Junio, Sábado

    Tiempo Temperatura Precipitaciones Viento Presión Humedad
    00:00 +11°C° 0.1 mm 4 mps 743 mmHg 95%
    01:00 +9°C° 0 mm 5 mps 743 mmHg 94%
    02:00 +9°C° 0.2 mm 6 mps 743 mmHg 93%
    03:00 +10°C° 0.2 mm 6 mps 742 mmHg 93%
    04:00 +10°C° 0.2 mm 7 mps 742 mmHg 92%
    05:00 +10°C° 0 mm 7 mps 743 mmHg 87%
    06:00 +10°C° 0 mm 8 mps 743 mmHg 82%
    07:00 +10°C° 0 mm 9 mps 744 mmHg 77%
    08:00 +12°C° 0 mm 8 mps 745 mmHg 70%
    09:00 +13°C° 0 mm 8 mps 746 mmHg 62%
    10:00 +15°C° 0 mm 8 mps 746 mmHg 55%
    11:00 +16°C° 0 mm 8 mps 747 mmHg 54%
    12:00 +16°C° 0 mm 8 mps 747 mmHg 53%
    13:00 +17°C° 0 mm 8 mps 748 mmHg 51%
    14:00 +17°C° 0 mm 7 mps 748 mmHg 53%
    15:00 +17°C° 0 mm 7 mps 748 mmHg 54%
    16:00 +17°C° 0 mm 6 mps 748 mmHg 55%
    17:00 +16°C° 0.1 mm 5 mps 749 mmHg 60%
    18:00 +15°C° 0.1 mm 4 mps 749 mmHg 65%
    19:00 +14°C° 0.1 mm 3 mps 749 mmHg 70%
    20:00 +13°C° 0 mm 4 mps 749 mmHg 75%
    21:00 +12°C° 0 mm 4 mps 750 mmHg 80%
    22:00 +11°C° 0 mm 4 mps 750 mmHg 85%
    23:00 +11°C° 0 mm 4 mps 751 mmHg 86%

    Mañana, 7 Junio, Domingo

    Tiempo Temperatura Precipitaciones Viento Presión Humedad
    00:00 +11°C° 0 mm 4 mps 751 mmHg 87%
    01:00 +11°C° 0 mm 4 mps 752 mmHg 88%
    02:00 +11°C° 0 mm 4 mps 752 mmHg 91%
    03:00 +11°C° 0 mm 4 mps 752 mmHg 93%
    04:00 +11°C° 0 mm 4 mps 752 mmHg 95%
    05:00 +12°C° 0 mm 4 mps 752 mmHg 91%
    06:00 +13°C° 0 mm 4 mps 752 mmHg 87%
    07:00 +14°C° 0 mm 4 mps 752 mmHg 83%
    08:00 +14°C° 0.1 mm 4 mps 753 mmHg 83%
    09:00 +15°C° 0.1 mm 4 mps 753 mmHg 82%
    10:00 +15°C° 0.1 mm 4 mps 753 mmHg 82%
    11:00 +15°C° 0.3 mm 4 mps 753 mmHg 83%
    12:00 +15°C° 0.3 mm 4 mps 753 mmHg 84%
    13:00 +15°C° 0.3 mm 4 mps 753 mmHg 85%
    14:00 +17°C° 0.1 mm 3 mps 753 mmHg 84%
    15:00 +17°C° 0.1 mm 3 mps 752 mmHg 83%
    16:00 +17°C° 0.1 mm 2 mps 752 mmHg 83%
    17:00 +17°C° 0 mm 2 mps 752 mmHg 85%
    18:00 +16°C° 0 mm 2 mps 752 mmHg 88%
    19:00 +16°C° 0 mm 1 mps 752 mmHg 91%
    20:00 +15°C° 0 mm 1 mps 753 mmHg 92%
    21:00 +14°C° 0 mm 1 mps 753 mmHg 94%
    22:00 +12°C° 0 mm 0 mps 753 mmHg 95%
    23:00 +12°C° 0 mm 0 mps 753 mmHg 95%

    Pasado mañana, 8 Junio, Lunes

    Tiempo Temperatura Precipitaciones Viento Presión Humedad
    00:00 +12°C° 0 mm 0 mps 753 mmHg 95%
    01:00 +12°C° 0 mm 0 mps 753 mmHg 96%
    02:00 +13°C° 0 mm 1 mps 753 mmHg 95%
    03:00 +13°C° 0 mm 1 mps 753 mmHg 95%
    04:00 +13°C° 0 mm 1 mps 753 mmHg 95%
    05:00 +14°C° 0 mm 1 mps 753 mmHg 93%
    06:00 +15°C° 0 mm 1 mps 753 mmHg 90%
    07:00 +16°C° 0 mm 1 mps 753 mmHg 88%
    08:00 +16°C° 0.5 mm 2 mps 753 mmHg 90%
    09:00 +15°C° 0.5 mm 2 mps 754 mmHg 92%
    10:00 +14°C° 0.5 mm 3 mps 754 mmHg 93%
    11:00 +14°C° 0.7 mm 3 mps 754 mmHg 94%
    12:00 +13°C° 0.7 mm 4 mps 754 mmHg 94%
    13:00 +13°C° 0.7 mm 4 mps 754 mmHg 94%
    14:00 +12°C° 1.1 mm 4 mps 754 mmHg 95%
    15:00 +12°C° 1.1 mm 5 mps 754 mmHg 95%
    16:00 +12°C° 1.1 mm 5 mps 754 mmHg 95%
    17:00 +12°C° 0.7 mm 4 mps 754 mmHg 95%
    18:00 +12°C° 0.7 mm 4 mps 754 mmHg 96%
    19:00 +12°C° 0.7 mm 4 mps 755 mmHg 96%
    20:00 +12°C° 0.1 mm 3 mps 755 mmHg 96%
    21:00 +12°C° 0.1 mm 3 mps 755 mmHg 96%
    22:00 +12°C° 0.1 mm 3 mps 755 mmHg 96%
    23:00 +12°C° 0 mm 3 mps 756 mmHg 95%

    9 Junio, Martes

    Tiempo Temperatura Precipitaciones Viento Presión Humedad
    00:00 +11°C° 0 mm 3 mps 756 mmHg 95%
    01:00 +11°C° 0 mm 3 mps 756 mmHg 94%
    02:00 +11°C° 0 mm 3 mps 756 mmHg 94%
    03:00 +11°C° 0 mm 3 mps 756 mmHg 93%
    04:00 +10°C° 0 mm 3 mps 756 mmHg 93%
    05:00 +11°C° 0 mm 3 mps 756 mmHg 89%
    06:00 +13°C° 0 mm 3 mps 757 mmHg 86%
    07:00 +14°C° 0 mm 4 mps 757 mmHg 83%
    08:00 +15°C° 0 mm 4 mps 757 mmHg 76%
    09:00 +17°C° 0 mm 4 mps 757 mmHg 70%
    10:00 +18°C° 0 mm 4 mps 758 mmHg 64%
    11:00 +19°C° 0 mm 4 mps 758 mmHg 64%
    12:00 +19°C° 0 mm 4 mps 758 mmHg 64%
    13:00 +19°C° 0 mm 4 mps 758 mmHg 64%
    14:00 +19°C° 0 mm 5 mps 758 mmHg 67%
    15:00 +17°C° 0 mm 5 mps 758 mmHg 69%
    16:00 +17°C° 0 mm 5 mps 757 mmHg 72%
    17:00 +16°C° 0 mm 5 mps 758 mmHg 76%
    18:00 +15°C° 0 mm 4 mps 758 mmHg 80%
    19:00 +14°C° 0 mm 4 mps 758 mmHg 84%
    20:00 +13°C° 0 mm 4 mps 758 mmHg 87%
    21:00 +13°C° 0 mm 4 mps 758 mmHg 89%
    22:00 +12°C° 0 mm 4 mps 758 mmHg 92%
    23:00 +12°C° 0 mm 4 mps 758 mmHg 91%

    10 Junio, Miércoles

    Tiempo Temperatura Precipitaciones Viento Presión Humedad
    00:00 +12°C° 0 mm 4 mps 758 mmHg 90%
    01:00 +12°C° 0 mm 5 mps 758 mmHg 89%
    02:00 +12°C° 0 mm 5 mps 758 mmHg 90%
    03:00 +10°C° 0 mm 5 mps 758 mmHg 91%
    04:00 +10°C° 0 mm 5 mps 758 mmHg 92%
    05:00 +12°C° 0 mm 5 mps 758 mmHg 88%
    06:00 +14°C° 0 mm 5 mps 758 mmHg 83%
    07:00 +15°C° 0 mm 6 mps 758 mmHg 79%
    08:00 +15°C° 0 mm 6 mps 758 mmHg 77%
    09:00 +16°C° 0 mm 6 mps 758 mmHg 76%
    10:00 +16°C° 0 mm 6 mps 758 mmHg 74%
    11:00 +17°C° 0 mm 6 mps 758 mmHg 73%
    12:00 +17°C° 0 mm 6 mps 758 mmHg 72%
    13:00 +19°C° 0 mm 6 mps 758 mmHg 71%
    14:00 +17°C° 0 mm 6 mps 758 mmHg 73%
    15:00 +17°C° 0 mm 6 mps 758 mmHg 74%
    16:00 +17°C° 0 mm 6 mps 758 mmHg 75%
    17:00 +16°C° 0 mm 6 mps 758 mmHg 78%
    18:00 +15°C° 0 mm 6 mps 758 mmHg 81%
    19:00 +14°C° 0 mm 5 mps 758 mmHg 84%
    20:00 +13°C° 0 mm 5 mps 758 mmHg 87%
    21:00 +13°C° 0 mm 5 mps 758 mmHg 89%
    22:00 +12°C° 0 mm 5 mps 758 mmHg 92%
    23:00 +12°C° 0 mm 5 mps 758 mmHg 91%

    11 Junio, Jueves

    Tiempo Temperatura Precipitaciones Viento Presión Humedad
    00:00 +12°C° 0 mm 5 mps 758 mmHg 90%
    01:00 +10°C° 0 mm 5 mps 758 mmHg 89%
    02:00 +12°C° 0 mm 5 mps 758 mmHg 90%
    03:00 +12°C° 0 mm 5 mps 757 mmHg 91%
    04:00 +12°C° 0 mm 5 mps 757 mmHg 92%
    05:00 +13°C° 0 mm 5 mps 757 mmHg 90%
    06:00 +14°C° 0 mm 6 mps 757 mmHg 88%
    07:00 +15°C° 0 mm 6 mps 758 mmHg 86%
    08:00 +16°C° 0 mm 6 mps 758 mmHg 83%
    09:00 +17°C° 0 mm 6 mps 758 mmHg 80%
    10:00 +19°C° 0 mm 6 mps 758 mmHg 77%
    11:00 +19°C° 0 mm 6 mps 757 mmHg 76%
    12:00 +20°C° 0 mm 6 mps 757 mmHg 74%
    13:00 +20°C° 0 mm 6 mps 757 mmHg 72%
    14:00 +19°C° 0 mm 6 mps 757 mmHg 73%
    15:00 +19°C° 0 mm 6 mps 757 mmHg 74%
    16:00 +19°C° 0 mm 6 mps 757 mmHg 75%
    17:00 +17°C° 0 mm 6 mps 756 mmHg 79%
    18:00 +16°C° 0 mm 5 mps 756 mmHg 84%
    19:00 +16°C° 0 mm 5 mps 756 mmHg 89%
    20:00 +15°C° 0.1 mm 5 mps 756 mmHg 89%
    21:00 +15°C° 0.1 mm 5 mps 756 mmHg 90%
    22:00 +15°C° 0.1 mm 5 mps 756 mmHg 90%
    23:00 +15°C° 0.1 mm 5 mps 756 mmHg 91%
    Mostrar más